Location: *
(51.3022°N, 17.7144°E)
Time: 09:55:21
(UTC+00:00)

Daily predictions for brighter satellites

Satellite Brightness Start Highest point End
(mag) Time Altitude Azimuth Time Altitude Azimuth Time Altitude Azimuth
Cosmos 1553 Rocket 3.9 17:42:16 10° S 17:48:19 78° E 17:54:26 10° NNE
STARLINK-1108 3.8 17:44:53 10° WNW 17:48:53 65° SSW 17:52:52 10° ESE
Meteor 1-24 Rocket 3.7 17:44:34 10° N 17:50:10 68° ENE 17:55:32 10° SSE
STARLINK-1112 3.7 17:47:08 10° WNW 17:51:18 74° N 17:55:27 10° E
STARLINK-1201 4.0 17:48:27 10° SSW 17:51:20 29° SE 17:54:14 10° E
STARLINK-1071 3.9 17:49:24 10° WNW 17:53:23 62° SSW 17:57:22 10° SE
Meteor 1-15 Rocket 4.4 17:47:53 10° SSW 17:53:37 84° WNW 17:59:16 10° NNE
SeaSat 1 3.0 17:48:55 10° NNE 17:53:50 64° NW 17:58:42 10° SW
STARLINK-1124 4.0 17:49:53 10° WNW 17:54:00 62° SSW 17:58:06 10° SE
ARGOS 3.3 17:49:26 10° SE 17:54:42 56° ENE 17:59:58 10° N
SL-8 R/B 3.9 17:50:20 10° WSW 17:55:02 59° S 17:59:45 10° E
STARLINK-1128 3.7 17:52:08 10° WNW 17:56:18 75° N 18:00:27 10° E
STARLINK-1066 4.0 17:53:33 10° W 17:56:31 38° SSW 17:59:28 10° SE
STARLINK-1081 4.0 17:54:01 10° W 17:56:57 37° SSW 17:59:51 10° SE
STARLINK-1070 4.0 17:54:28 10° W 17:57:24 37° SSW 18:00:18 10° SE
MOS 1 4.4 17:52:15 10° SSE 17:57:49 64° ENE 18:03:26 10° N
STARLINK-1069 4.1 17:54:53 10° W 17:57:49 37° SSW 18:00:46 10° SE
STARLINK-1110 3.9 17:53:55 10° WNW 17:57:53 59° SSW 18:01:51 10° SE
STARLINK-1209 3.3 17:55:15 10° SW 17:57:59 38° SSE 18:00:43 10° E
STARLINK-1085 4.1 17:55:19 10° W 17:58:16 37° SSW 18:01:13 10° SE
STARLINK-1086 4.1 17:55:50 10° W 17:58:45 36° SSW 18:01:38 10° SE
STARLINK-1228 3.3 17:56:06 10° SW 17:58:48 38° SSE 18:01:31 10° E
STARLINK-1095 4.1 17:56:17 10° W 17:59:11 36° SSW 18:02:05 10° SE
STARLINK-1077 4.1 17:56:44 10° W 17:59:37 35° SSW 18:02:31 10° SE
CZ-4 R/B 3.8 17:56:26 10° SSW 17:59:42 26° W 18:02:59 10° NW
STARLINK-1075 4.1 17:57:11 10° W 18:00:05 35° SSW 18:02:58 10° SE
STARLINK-1093 4.1 17:57:35 10° W 18:00:32 35° SSW 18:03:27 10° SE
STARLINK-1074 4.1 17:58:02 10° W 18:00:58 35° SSW 18:03:53 10° SE
STARLINK-1113 3.7 17:57:07 10° WNW 18:01:17 77° N 18:05:23 10° E
STARLINK-1087 4.1 17:58:32 10° W 18:01:25 34° SSW 18:04:18 10° SE
Cosmos 2315 Rocket 4.5 17:56:00 10° SSE 18:01:49 41° E 18:07:42 10° NNE
STARLINK-1088 4.2 17:59:00 10° W 18:01:53 34° SSW 18:04:45 10° SE
STARLINK-1115 4.2 17:59:25 10° W 18:02:19 34° SSW 18:05:14 10° SE
STARLINK-1076 4.2 17:59:51 10° W 18:02:46 34° SSW 18:05:40 10° SE
STARLINK-1092 4.2 18:00:19 10° W 18:03:13 34° SSW 18:06:07 10° SE
STARLINK-1080 4.2 18:00:48 10° W 18:03:41 33° SSW 18:06:32 10° SE
PKM 4.2 18:00:31 10° WSW 18:03:58 87° SSE 18:10:05 10° ENE
STARLINK-1090 4.2 18:01:15 10° W 18:04:06 33° SSW 18:06:58 10° SE
STARLINK-1089 4.2 18:01:43 10° W 18:04:34 33° SSW 18:07:25 10° SE
STARLINK-1107 4.2 18:02:09 10° W 18:05:01 33° SSW 18:07:51 10° SSE
STARLINK-1119 3.7 18:02:05 10° WNW 18:06:15 79° NNE 18:10:09 12° E
Cosmos 1470 3.7 18:03:43 10° SSE 18:06:59 27° E 18:10:18 10° NNE
STARLINK-1122 4.1 18:03:03 10° WNW 18:07:00 53° SSW 18:10:56 10° SE
NOSS 2-1 (C) 3.3 18:04:10 10° SW 18:07:33 73° NW 18:11:25 10° NE
STARLINK-1241 4.4 18:04:29 10° SSW 18:08:04 32° SE 18:11:39 10° E
SL-08 RB Rocket 3.9 18:04:46 10° SE 18:09:07 50° ENE 18:13:34 10° N
ATLAS CENTAUR R/B 3.9 18:06:04 10° WNW 18:09:26 21° NNW 18:12:39 10° NNE
STARLINK-1114 3.7 18:07:06 10° WNW 18:11:15 81° NNE 18:14:57 13° E
Cosmos 2369 Rocket 3.0 18:06:01 10° NNW 18:11:17 36° NE 18:16:02 12° ESE
STARLINK-1233 3.4 18:08:28 10° SW 18:11:25 40° SSE 18:14:11 12° E
STARLINK-1126 4.2 18:07:41 10° WNW 18:11:37 50° SSW 18:15:25 11° SE
IRS-1A Rocket 4.4 18:06:00 10° SSE 18:11:40 86° WSW 18:17:30 10° NNW
NOSS 2-1 (D) 3.4 18:08:22 10° SW 18:11:45 67° NW 18:15:38 10° NE
Resurs 1-3 4.3 18:07:49 10° SE 18:11:48 35° ENE 18:15:49 10° N
STARLINK-1212 3.4 18:08:55 10° SW 18:11:53 40° SSE 18:14:35 12° E
Cosmos 304 Rocket 4.1 18:07:11 10° NNW 18:11:58 70° WSW 18:16:43 10° SSE
COSMOS 2428 4.0 18:06:47 10° WSW 18:12:17 46° NW 18:17:48 10° NNE
STARLINK-1105 3.4 18:09:21 10° SW 18:12:19 40° SSE 18:15:03 12° E
ISS -3.8 18:08:58 10° W 18:12:20 85° N 18:15:13 14° E
STARLINK-1239 4.3 18:08:59 10° SSW 18:12:37 34° SE 18:16:12 10° E
SJ-6B 3.0 18:08:37 10° SSE 18:12:38 62° ENE 18:16:44 10° N
STARLINK-1206 3.4 18:09:50 10° SW 18:12:48 40° SSE 18:15:27 12° E
STARLINK-1247 3.4 18:10:17 10° SW 18:13:15 40° SSE 18:15:53 12° E
STARLINK-1227 3.4 18:10:41 10° SW 18:13:40 41° SSE 18:16:20 12° E
CZ-2C R/B 2.9 18:08:42 10° SSE 18:13:45 79° ENE 18:18:36 10° NNW
STARLINK-1218 3.4 18:11:10 10° SW 18:14:08 41° SSE 18:16:45 12° E
Cosmos 1758 4.2 18:10:52 10° SSE 18:14:28 31° E 18:18:06 10° NNE
STARLINK-1226 3.3 18:11:38 10° SW 18:14:36 41° SSE 18:17:12 13° E
STARLINK-1254 3.3 18:12:02 10° SW 18:15:00 42° SSE 18:17:38 13° E
STARLINK-1215 3.3 18:12:32 10° SW 18:15:29 42° SSE 18:18:03 13° E
STARLINK-1231 3.3 18:12:57 10° SW 18:15:55 42° SSE 18:18:29 13° E
STARLINK-1082 4.2 18:12:15 10° WNW 18:16:09 48° SSW 18:19:48 11° SE
STARLINK-1130 (DARKSAT) 3.6 18:12:03 10° WNW 18:16:13 83° NNE 18:19:43 14° ESE
Cosmos 1048 Rocket 4.2 18:11:38 10° SSW 18:16:47 75° WNW 18:22:01 10° NNE
STARLINK-1232 3.3 18:13:51 10° SW 18:16:50 43° SSE 18:19:21 13° E
STARLINK-1240 4.2 18:13:30 10° SSW 18:17:12 36° SE 18:20:38 11° E
STARLINK-1217 3.3 18:14:18 10° SW 18:17:17 43° SSE 18:19:47 13° E
STARLINK-1208 3.3 18:14:43 10° SW 18:17:43 44° SSE 18:20:15 13° E
Meteor 2-8 Rocket 4.4 18:11:44 10° S 18:17:51 74° E 18:24:00 10° NNE
STARLINK-1229 3.3 18:15:11 10° SW 18:18:10 44° SSE 18:20:39 14° E
Meteor 1-22 Rocket 4.0 18:13:22 10° S 18:18:38 75° E 18:23:56 10° NNE
STARLINK-1271 3.3 18:15:38 10° SW 18:18:38 44° SSE 18:21:06 14° E
Resurs 01 Rocket 2.5 18:15:31 12° ESE 18:19:02 31° ENE 18:22:55 10° N
STARLINK-1270 3.2 18:16:06 10° SW 18:19:05 44° SSE 18:21:32 14° E
STARLINK-1154 3.2 18:16:32 10° SW 18:19:31 44° SSE 18:21:57 14° E
STARLINK-1197 3.2 18:17:26 10° SW 18:20:25 45° SSE 18:22:49 15° E
STARLINK-1100 4.3 18:16:50 10° WNW 18:20:41 45° SSW 18:24:11 12° SE
STARLINK-1189 3.2 18:17:53 10° SW 18:20:52 45° SSE 18:23:16 15° E
STARLINK-1084 3.6 18:17:02 10° WNW 18:21:12 85° NNE 18:24:30 16° ESE
USA 81 4.5 18:16:22 10° N 18:21:38 68° W 18:26:50 10° S
STARLINK-1187 3.1 18:18:40 10° SW 18:21:43 50° SSE 18:24:10 15° E
STARLINK-1188 3.2 18:18:46 10° SW 18:21:47 46° SSE 18:24:07 15° E
STARLINK-1216 4.1 18:18:03 10° SW 18:21:47 38° SSE 18:25:04 13° E
STARLINK-1198 3.2 18:19:01 10° SW 18:22:01 46° SSE 18:24:21 15° E
STARLINK-1235 3.0 18:19:19 10° SW 18:22:24 56° SSE 18:24:55 14° ENE
Cosmos 494 Rocket 3.9 18:17:56 10° SSW 18:23:05 79° ESE 18:28:18 10° NNE
STARLINK-1199 3.2 18:20:41 10° SW 18:23:44 48° SSE 18:26:02 16° E
Cosmos 1733 3.1 18:20:02 10° S 18:23:49 89° WNW 18:27:37 10° N
STARLINK-1191 3.2 18:21:09 10° SW 18:24:11 48° SSE 18:26:29 16° E
CZ-4C R/B 3.9 18:19:21 10° W 18:24:29 35° NNW 18:30:34 10° NE
Cosmos 1709 Rocket 4.0 18:18:20 10° N 18:24:37 82° E 18:30:46 10° SSE
STARLINK-1210 3.1 18:21:35 10° SW 18:24:37 48° SSE 18:26:54 16° E
STARLINK-1221 3.1 18:22:03 10° SW 18:25:05 49° SSE 18:27:22 16° E
STARLINK-1083 4.4 18:21:25 10° WNW 18:25:16 43° SSW 18:28:36 13° SE
STARLINK-1219 3.1 18:22:29 10° SW 18:25:32 49° SSE 18:27:47 16° E
FREGAT/IRIS 2.8 18:23:01 10° S 18:25:43 61° WSW 18:28:26 10° NNW
STARLINK-67 2.3 18:23:17 10° WSW 18:25:51 72° SSE 18:27:36 18° ENE
STARLINK-1222 3.1 18:22:56 10° SW 18:25:58 49° SSE 18:28:13 16° E
STARLINK-1098 3.6 18:22:00 10° WNW 18:26:10 88° NNE 18:29:16 17° ESE
STARLINK-1237 4.0 18:22:38 10° SW 18:26:25 40° SSE 18:29:33 14° E
STARLINK-1211 3.1 18:23:22 10° SW 18:26:25 49° SSE 18:28:38 17° E
SPOT 3 Rocket 3.6 18:21:20 10° SSE 18:26:29 64° ENE 18:31:40 10° N
STARLINK-1214 3.1 18:23:50 10° SW 18:26:53 50° SSE 18:29:05 17° E
STARLINK-1245 3.1 18:24:19 10° SW 18:27:21 50° SSE 18:29:30 17° E
STARLINK-1238 3.1 18:24:44 10° SW 18:27:47 50° SSE 18:29:57 17° E
STARLINK-1205 3.1 18:25:40 10° SW 18:28:43 51° SSE 18:30:49 18° E
SL-14 R/B 3.4 18:25:03 10° NNW 18:29:08 81° W 18:33:10 10° S
STARLINK-1204 3.0 18:26:06 10° SW 18:29:08 51° SSE 18:31:13 18° E
STARLINK-1125 4.5 18:26:03 10° WNW 18:29:52 40° SSW 18:33:02 14° SE
Cosmos 2219 Rocket 4.0 18:25:29 10° WSW 18:30:36 34° NW 18:35:44 10° NNE
STARLINK-1202 3.9 18:27:12 10° SW 18:31:00 43° SSE 18:33:58 15° E
STARLINK-1123 3.6 18:27:01 10° WNW 18:31:11 90° SSW 18:34:05 19° ESE
Cosmos 1726 3.6 18:32:03 18° E 18:32:23 18° E 18:34:59 10° NE
MOS 1 Rocket 4.2 18:28:08 10° NNE 18:32:50 33° E 18:37:40 10° SSE
STARLINK-1246 3.9 18:32:05 10° SW 18:35:59 46° SSE 18:38:50 17° E
STARLINK-1097 3.6 18:31:58 10° WNW 18:36:08 87° SSW 18:38:50 21° ESE
Cosmos 2074 Rocket 4.4 18:30:53 10° N 18:36:54 46° ENE 18:42:01 14° SE
Cosmos 1943 Rocket 2.3 18:31:36 10° NNW 18:37:06 61° NE 18:41:19 17° SE
Cosmos 292 Rocket 4.1 18:32:45 10° NNW 18:37:24 48° ENE 18:40:35 19° SE
Cosmos 1980 4.4 18:34:16 10° SW 18:39:52 58° NW 18:45:31 10° NNE
STARLINK-1099 3.6 18:36:58 10° WNW 18:41:08 84° SSW 18:43:38 23° ESE
Ariane Rocket 4.1 18:37:40 10° S 18:42:32 46° W 18:47:26 10° NNW
STARLINK-1224 3.7 18:40:59 10° SW 18:44:54 51° SSE 18:47:23 20° E
STARLINK-1104 3.6 18:41:57 10° WNW 18:46:07 80° SSW 18:48:25 25° ESE
Cosmos 1455 Rocket 3.7 18:42:15 10° SSW 18:46:32 59° WNW 18:50:53 10° N
IRIDIUM 106 4.4 18:42:16 10° N 18:47:27 61° E 18:52:26 11° SSE
STARLINK-1225 3.7 18:45:39 10° SW 18:49:35 54° SSE 18:51:55 22° E
STARLINK-1144 3.6 18:46:55 10° WNW 18:51:04 77° SSW 18:53:11 28° ESE
STARLINK-1203 3.5 18:47:37 10° SW 18:51:30 58° SSE 18:53:42 24° E
Cosmos 1626 Rocket 3.8 18:47:39 10° NNW 18:52:04 72° W 18:56:25 10° S
NOSS 2-2 (D) 4.4 18:47:31 10° NW 18:52:54 81° NE 18:57:58 21° SE
SL-16 R/B 2.1 18:47:32 10° SSW 18:53:11 76° ESE 18:58:51 10° NNE
STARLINK-1230 3.6 18:50:15 10° SW 18:54:13 57° SSE 18:56:23 25° E
Cosmos 2333 Rocket 4.4 18:49:36 10° W 18:54:19 26° NW 18:59:01 10° NNE
Cosmos 1626 3.4 18:51:26 10° NNW 18:54:56 41° W 18:58:26 10° SSW
USA 186 3.8 18:51:55 10° SSW 18:55:02 31° W 18:58:07 10° NNW
Spot 2 Rocket 4.1 18:52:55 23° ESE 18:55:31 40° ENE 19:00:18 10° N
STARLINK-1103 3.6 18:51:54 10° WNW 18:56:03 74° SSW 18:57:58 30° ESE
Cosmos 1437 3.4 18:53:29 10° N 18:56:17 32° ENE 18:56:21 32° ENE
Cosmos 1953 2.6 18:53:53 19° SSE 18:56:21 45° E 19:00:10 10° NNE
Cosmos 2084 Rocket 3.5 18:51:58 10° NW 18:56:27 82° NE 18:58:46 28° SE
STARLINK-1234 2.6 18:54:25 10° WSW 18:57:25 87° SSE 18:58:25 38° ENE
STARLINK-1243 3.5 18:54:55 10° SW 18:58:53 60° SSE 19:00:54 27° E
Cosmos 1602 Rocket 3.7 18:55:09 10° NNW 18:59:39 77° W 19:03:55 11° S
STARLINK-1101 3.6 18:56:54 10° WNW 19:01:02 70° SSW 19:02:46 33° SE
Aureole 3 3.6 18:57:28 10° S 19:01:29 65° E 19:06:39 10° NNE
STARLINK-1236 3.5 18:59:33 10° SW 19:03:33 63° SSE 19:05:22 30° E
DMSP B5D2-2 4.0 18:59:26 10° NNE 19:04:39 65° ESE 19:09:50 10° S
ATLAS 2AS CENTAUR R/B 3.4 18:58:03 10° NW 19:05:39 51° NNE 19:10:16 22° E
STARLINK-1102 3.7 19:01:52 10° WNW 19:06:00 67° SSW 19:07:32 36° SE
IGS 5A 4.4 19:05:47 28° E 19:06:31 30° ENE 19:10:10 10° N
H-2A R/B 3.5 19:02:06 10° SSW 19:06:59 37° W 19:11:47 10° NNW
Aureole 2 Rocket 2.3 19:06:07 10° NNW 19:09:39 74° ENE 19:10:31 47° SE
STARLINK-1111 3.7 19:06:51 10° WNW 19:10:57 64° SSW 19:12:19 39° SE
Terra 3.4 19:10:44 19° ENE 19:11:34 19° ENE 19:14:56 10° NNE
USA 234 3.2 19:06:23 10° ENE 19:12:54 67° SE 19:19:25 10° SW
STARLINK-1269 3.4 19:08:55 10° WSW 19:12:56 70° SSE 19:14:25 37° E
CZ-2C R/B 3.9 19:09:27 10° NNE 19:14:16 77° WNW 19:18:58 10° SSW
ERBS 3.6 19:11:45 10° W 19:14:57 38° NNW 19:16:57 19° NE
Cosmos 1603 4.1 19:12:01 21° SSE 19:15:00 36° ESE 19:20:07 10° NE
Meteor 1-16 Rocket 4.3 19:12:24 23° SSE 19:15:25 48° E 19:20:40 10° NNE
STARLINK-1073 3.8 19:11:50 10° WNW 19:15:56 60° SSW 19:17:06 41° SSE
Cosmos 1703 3.5 19:13:26 10° N 19:17:16 47° ENE 19:17:46 44° E
STARLINK-1200 3.4 19:13:36 10° WSW 19:17:38 73° SSE 19:18:57 41° E
Cosmos 1726 Rocket 4.3 19:18:06 34° E 19:18:06 34° E 19:21:56 10° NNE
Cosmos 1825 Rocket 3.5 19:14:37 10° N 19:19:05 71° E 19:20:41 38° SSE
STARLINK-1121 3.9 19:16:49 10° WNW 19:20:54 57° SSW 19:21:53 44° SSE
STARLINK-1192 3.4 19:18:14 10° WSW 19:22:16 76° SSE 19:23:25 45° E
MetOp-B 4.1 19:19:53 30° SSE 19:22:36 73° ENE 19:27:58 10° NNW
Cosmos 2237 Rocket 3.9 19:18:47 10° WSW 19:23:53 34° NW 19:29:02 10° NNE
COSMOS 2455 4.0 19:19:49 10° NNW 19:25:12 32° NNE 19:28:01 22° ENE
STARLINK-1106 3.9 19:21:47 10° WNW 19:25:50 54° SSW 19:26:39 45° SSE
CZ-2C R/B 2.4 19:21:05 10° NNE 19:26:19 82° ESE 19:31:30 10° SSW
STARLINK-1244 3.4 19:23:01 10° WSW 19:27:04 79° SSE 19:28:01 51° E
STARLINK-1201 2.9 19:24:07 10° WSW 19:27:23 82° NNW 19:27:30 79° NNE
Meteor 1-11 4.4 19:22:01 10° N 19:27:45 56° ENE 19:29:47 37° SE
Cosmos 2184 Rocket 4.0 19:21:23 10° N 19:27:47 88° W 19:32:14 21° S
Cosmos 1992 Rocket 4.1 19:22:46 10° NNW 19:28:00 76° WSW 19:30:33 31° SSE
Cosmos 1758 Rocket 3.5 19:23:56 10° NNW 19:28:21 82° W 19:30:09 35° S
STARLINK-1112 4.0 19:26:48 10° WNW 19:30:49 51° SSW 19:31:27 46° S
STARLINK-1138 3.4 19:27:42 10° WSW 19:31:46 82° SSE 19:32:32 57° E
STARLINK-1209 3.4 19:29:49 10° W 19:32:14 53° WNW 19:32:14 53° WNW
STARLINK-1228 3.5 19:30:48 10° W 19:33:08 50° WNW 19:33:08 50° WNW
Meteor 2-17 Rocket 4.4 19:28:10 10° N 19:34:18 69° ENE 19:36:57 36° SSE
Cosmos 1953 Rocket 3.5 19:30:14 10° N 19:34:41 70° ENE 19:35:31 55° SE
STARLINK-1128 4.0 19:31:48 10° WNW 19:35:48 48° SSW 19:36:15 46° S
STARLINK-1143 3.4 19:32:28 10° WSW 19:36:32 85° SSE 19:37:08 64° E
SL-8 R/B 3.8 19:32:39 10° W 19:37:20 55° SSW 19:38:02 50° SSE
Cosmos 2251 Rocket 3.4 19:32:01 10° SSW 19:37:21 72° ESE 19:42:45 10° NNE
Cosmos 1461 4.4 19:33:49 10° NNW 19:37:41 28° NNE 19:38:46 25° ENE
Cosmos 546 4.4 19:34:53 10° W 19:38:46 82° S 19:38:53 81° SSE
Cosmos 1656 Rocket 3.7 19:33:51 10° NNW 19:39:33 68° ENE 19:41:14 45° ESE
STARLINK-1113 4.1 19:36:47 10° WNW 19:40:45 45° SSW 19:41:02 44° SSW
Cosmos 1606 Rocket 3.4 19:43:16 61° SSE 19:43:55 74° E 19:48:22 10° NNE
STARLINK-1119 4.2 19:41:46 10° WNW 19:45:42 42° SSW 19:45:48 42° SSW
STARLINK-1241 3.4 19:42:56 10° WSW 19:46:58 88° NNW 19:47:06 84° ENE
STARLINK-1233 3.9 19:44:01 10° W 19:46:21 44° W 19:46:21 44° W
STARLINK-1212 4.0 19:44:29 10° W 19:46:46 43° W 19:46:46 43° W
STARLINK-1105 4.0 19:44:56 10° W 19:47:13 43° W 19:47:13 43° W
STARLINK-1206 4.1 19:45:25 10° W 19:47:38 41° W 19:47:38 41° W
Cosmos 2154 Rocket 4.0 19:42:16 10° N 19:48:41 87° ENE 19:51:33 36° S
STARLINK-1247 4.1 19:45:52 10° W 19:48:03 41° W 19:48:03 41° W
ISS -2.5 19:45:49 10° W 19:48:11 35° WSW 19:48:11 35° WSW
STARLINK-1227 4.1 19:46:16 10° W 19:48:30 41° W 19:48:30 41° W
ERS-1 Rocket 3.0 19:48:48 52° ESE 19:49:29 57° ENE 19:54:26 10° N
ATLAS CENTAUR R/B 4.1 19:47:51 10° NNW 19:49:48 13° N 19:51:43 10° NNE
STARLINK-1218 4.1 19:46:46 10° W 19:48:55 39° W 19:48:55 39° W
STARLINK-1226 4.2 19:47:14 10° W 19:49:22 39° W 19:49:22 39° W
STARLINK-1114 4.4 19:46:47 10° WNW 19:50:36 40° SW 19:50:36 40° SW
STARLINK-1254 4.1 19:47:37 10° W 19:49:48 40° W 19:49:48 40° W
STARLINK-1215 4.2 19:48:08 10° W 19:50:14 38° W 19:50:14 38° W
STARLINK-1239 3.4 19:47:31 10° WSW 19:51:30 85° NW 19:51:30 85° NW
USA 245 4.0 19:50:07 47° S 19:51:41 84° WSW 19:57:35 10° NNW
STARLINK-1231 4.2 19:48:34 10° W 19:50:39 37° W 19:50:39 37° W
STARLINK-1232 4.3 19:49:29 10° W 19:51:31 36° W 19:51:31 36° W
STARLINK-1217 4.3 19:49:56 10° W 19:51:58 36° W 19:51:58 36° W
STARLINK-1208 4.3 19:50:21 10° W 19:52:25 37° W 19:52:25 37° W
BREEZE-M DEB (TANK) 4.2 19:48:52 10° W 19:53:10 39° SW 19:53:10 39° SW
STARLINK-1229 4.4 19:50:49 10° W 19:52:49 35° W 19:52:49 35° W
STARLINK-1271 4.4 19:51:17 10° W 19:53:16 35° W 19:53:16 35° W
STARLINK-1270 4.4 19:51:45 10° W 19:53:41 34° W 19:53:41 34° W
STARLINK-1154 4.5 19:52:11 10° W 19:54:07 34° W 19:54:07 34° W
Resurs 01 Rocket 2.9 19:53:05 21° SSW 19:55:28 36° W 19:59:34 10° NNW
Cosmos 2369 Rocket 2.7 19:50:01 10° NW 19:55:34 53° WSW 19:57:50 33° S
SPOT 5 3.0 19:56:05 50° ENE 19:56:05 50° ENE 20:00:08 10° N
STARLINK-1240 3.6 19:52:08 10° WSW 19:55:56 77° WNW 19:55:56 77° WNW
STARLINK-1197 4.5 19:53:06 10° W 19:54:59 33° W 19:54:59 33° W
SL-24 R/B 4.5 19:51:56 10° N 19:57:00 70° E 19:57:55 58° SSE
STARLINK-1235 4.5 19:55:06 10° W 19:57:05 34° WNW 19:57:05 34° WNW
Cosmos 2263 4.4 19:53:47 10° NW 19:59:22 65° WSW 20:01:00 44° S
STARLINK-1216 3.7 19:56:46 10° WSW 20:00:23 69° W 20:00:23 69° W
Cosmos 1908 3.9 20:02:47 49° NNE 20:02:47 49° NNE 20:05:40 10° N
Cosmos 967 Rocket 4.4 19:56:00 10° SSW 20:02:20 63° ESE 20:08:45 10° NE
Cosmos 962 Rocket 4.4 19:58:35 10° N 20:04:50 75° ENE 20:06:15 54° SSE
STARLINK-1237 3.9 20:01:26 10° W 20:04:52 62° W 20:04:52 62° W
Landsat 7 3.8 20:06:33 63° SSW 20:07:13 75° WSW 20:12:00 10° NNW
Cosmos 1726 3.3 20:06:30 36° WSW 20:07:18 42° WNW 20:10:54 10° N
STARLINK-1202 4.1 20:06:03 10° W 20:09:18 55° W 20:09:18 55° W
Nadezhda 1 Rocket 4.0 20:06:17 26° SSW 20:10:08 82° W 20:16:34 10° N
Cosmos 921 Rocket 3.7 20:06:03 10° NNW 20:09:20 42° NNE 20:09:20 42° NNE
SL-8 Rocket 4.0 20:04:51 10° N 20:11:05 59° ENE 20:11:56 55° ESE
Cosmos 2228 3.3 20:11:03 60° WSW 20:11:27 64° WNW 20:15:45 10° N
CZ-4C R/B 4.2 20:09:26 10° NW 20:14:49 29° N 20:21:03 10° ENE
STARLINK-1246 4.3 20:11:10 10° W 20:14:18 51° W 20:14:18 51° W
Cosmos 2366 rocket 4.1 20:12:12 10° N 20:18:14 53° ENE 20:18:37 53° E
Cosmos 1340 Rocket 4.3 20:22:11 31° NNE 20:22:11 31° NNE 20:24:25 10° NNE
Cosmos 1943 Rocket 3.8 20:15:54 10° NW 20:20:28 27° WSW 20:22:51 20° SW
Cosmos 1943 3.0 20:19:28 58° SSW 20:20:38 84° ESE 20:26:22 10° NNE
Cosmos 2058 Rocket 3.4 20:24:10 62° N 20:24:10 62° N 20:27:59 10° N
Cosmos 2058 4.5 20:19:56 10° N 20:22:13 27° NNE 20:22:13 27° NNE
NOSS 3-4 (A) 3.7 20:17:22 10° NW 20:24:16 89° NE 20:25:57 58° SE
NOSS 3-4 (C) 3.7 20:17:28 10° NW 20:24:22 89° NE 20:26:03 58° SE
SPOT 1/Viking Rocket 4.0 20:32:06 50° SW 20:32:47 54° W 20:37:56 10° NNW
Mayak 1.2 20:29:42 10° NNE 20:30:20 13° NE 20:30:20 13° NE
Cosmos 1959 Rocket 4.4 20:28:34 10° N 20:34:57 71° ENE 20:35:20 69° ESE
NOSS 3-3 (A) 3.9 20:29:18 10° SW 20:35:17 88° NW 20:42:09 10° NE
NOSS 3-3 (C) 3.9 20:29:24 10° SW 20:35:23 89° NW 20:42:15 10° NE
SL-16 R/B 4.2 20:33:06 10° W 20:37:54 27° NW 20:42:44 10° NNE
Cosmos 1697 Rocket 4.3 20:38:47 10° NNW 20:43:17 23° NE 20:44:20 22° NE
Terra 2.3 20:49:36 59° NW 20:49:36 59° NW 20:53:36 10° NNW
Cosmos 2341 Rocket 4.4 20:46:27 10° NNW 20:52:41 59° W 20:53:50 51° SW
USA 234 3.5 20:49:29 10° ENE 20:55:58 65° NNW 21:02:26 10° W
ATLAS 2AS CENTAUR R/B 2.9 20:49:25 10° NW 20:56:58 63° SW 20:57:41 60° SSW
Cosmos 1821 Rocket 4.5 20:56:33 10° N 21:02:13 49° ENE 21:02:13 49° ENE
Cosmos 407 Rocket 4.2 21:04:45 47° NNE 21:04:45 47° NNE 21:08:25 10° NNE
Cosmos 1980 Rocket 4.0 21:03:52 10° NNW 21:08:07 21° NE 21:09:09 20° NE
Aureole 1 Rocket 4.4 21:07:14 42° SW 21:10:01 73° WNW 21:16:26 10° NNE
COSMOS 2455 2.9 21:05:43 10° NW 21:11:09 71° WNW 21:11:09 71° WNW
Cosmos 2218 Rocket 4.3 21:15:22 10° NNW 21:21:23 57° W 21:21:25 57° W
ATLAS CENTAUR R/B 3.9 21:27:16 10° NNW 21:29:15 18° N 21:29:15 18° N
Cosmos 2181 Rocket 4.5 21:33:09 51° W 21:33:39 52° WNW 21:39:45 10° N
Cosmos 1656 4.4 21:44:32 10° NNW 21:48:47 51° NNW 21:48:47 51° NNW
ATLAS 5 CENTAUR R/B 4.4 21:57:41 12° NE 21:57:41 12° NE 21:58:06 10° NE
CZ-4C R/B 3.5 21:58:26 10° NW 22:04:54 49° NNE 22:06:33 42° ENE
Mayak 1.2 22:05:15 10° N 22:06:54 21° NNW 22:06:54 21° NNW
Nadezhda 3 Rocket 4.4 22:13:04 60° NNW 22:13:04 60° NNW 22:18:19 10° N
Cosmos 2344 4.4 22:06:36 10° NW 22:15:34 70° NE 22:20:04 42° ESE
Cosmos 1697 Rocket 3.8 22:22:23 10° NNW 22:26:02 42° NNW 22:26:02 42° NNW
SL-16 R/B 3.9 22:24:12 10° NNW 22:28:54 25° NE 22:29:37 25° NE
USA 234 3.8 22:32:14 10° ENE 22:38:35 55° N 22:44:56 10° WNW
Cosmos 2322 Rocket 3.9 22:39:12 10° NNW 22:43:59 27° NE 22:44:38 26° NE
Cosmos 2360 Rocket 4.5 22:40:53 10° NNW 22:44:50 19° NNE 22:47:51 13° ENE
Cosmos 1980 Rocket 3.3 22:47:26 10° NNW 22:50:54 39° NNW 22:50:54 39° NNW
COSMOS 2406 4.2 23:07:44 42° N 23:07:44 42° N 23:11:35 10° NNE
Cosmos 2082 Rocket 3.5 23:15:19 34° NE 23:15:19 34° NE 23:18:32 10° NE
SL-16 R/B 3.5 23:21:37 40° ENE 23:21:59 40° ENE 23:27:45 10° N
ATLAS 5 CENTAUR R/B 3.6 23:39:11 28° N 23:39:11 28° N 23:42:58 10° NE
Cosmos 1833 Rocket 3.6 23:45:10 45° N 23:45:10 45° N 23:49:18 10° NNE
